EN

Hourly Weather Al Karnak

Today, 21 January, Thursday

Time Temperature Precipitation Wind Pressure Humidity
00:00 +8°C° 0 mm 4 mps 759 mmHg 51%
01:00 +8°C° 0 mm 3 mps 759 mmHg 56%
02:00 +8°C° 0 mm 3 mps 759 mmHg 61%
03:00 +7°C° 0 mm 3 mps 759 mmHg 63%
04:00 +7°C° 0 mm 3 mps 759 mmHg 66%
05:00 +6°C° 0 mm 2 mps 759 mmHg 68%
06:00 +7°C° 0 mm 2 mps 759 mmHg 66%
07:00 +8°C° 0 mm 2 mps 759 mmHg 63%
08:00 +9°C° 0 mm 2 mps 759 mmHg 61%
09:00 +12°C° 0 mm 2 mps 759 mmHg 53%
10:00 +14°C° 0 mm 2 mps 759 mmHg 44%
11:00 +16°C° 0 mm 2 mps 759 mmHg 36%
12:00 +18°C° 0 mm 2 mps 758 mmHg 32%
13:00 +19°C° 0 mm 2 mps 758 mmHg 28%
14:00 +21°C° 0 mm 2 mps 757 mmHg 24%
15:00 +20°C° 0 mm 2 mps 757 mmHg 25%
16:00 +19°C° 0 mm 2 mps 757 mmHg 25%
17:00 +18°C° 0 mm 2 mps 757 mmHg 26%
18:00 +16°C° 0 mm 2 mps 757 mmHg 32%
19:00 +15°C° 0 mm 2 mps 757 mmHg 38%
20:00 +12°C° 0 mm 3 mps 758 mmHg 43%
21:00 +12°C° 0 mm 2 mps 758 mmHg 49%
22:00 +10°C° 0 mm 2 mps 758 mmHg 54%
23:00 +10°C° 0 mm 1 mps 757 mmHg 60%

Tomorrow, 22 January, Friday

Time Temperature Precipitation Wind Pressure Humidity
00:00 +10°C° 0 mm 1 mps 757 mmHg 58%
01:00 +9°C° 0 mm 2 mps 757 mmHg 56%
02:00 +9°C° 0 mm 2 mps 757 mmHg 54%
03:00 +9°C° 0 mm 2 mps 757 mmHg 55%
04:00 +8°C° 0 mm 2 mps 756 mmHg 55%
05:00 +8°C° 0 mm 2 mps 756 mmHg 55%
06:00 +9°C° 0 mm 2 mps 756 mmHg 51%
07:00 +10°C° 0 mm 2 mps 757 mmHg 47%
08:00 +13°C° 0 mm 2 mps 757 mmHg 42%
09:00 +14°C° 0 mm 3 mps 757 mmHg 38%
10:00 +17°C° 0 mm 3 mps 756 mmHg 34%
11:00 +20°C° 0 mm 3 mps 756 mmHg 30%
12:00 +21°C° 0 mm 3 mps 755 mmHg 26%
13:00 +22°C° 0 mm 3 mps 755 mmHg 22%
14:00 +24°C° 0 mm 3 mps 754 mmHg 18%
15:00 +22°C° 0 mm 3 mps 754 mmHg 18%
16:00 +21°C° 0 mm 3 mps 754 mmHg 17%
17:00 +21°C° 0 mm 3 mps 754 mmHg 16%
18:00 +18°C° 0 mm 3 mps 754 mmHg 20%
19:00 +16°C° 0 mm 3 mps 754 mmHg 23%
20:00 +14°C° 0 mm 2 mps 754 mmHg 27%
21:00 +13°C° 0 mm 2 mps 754 mmHg 33%
22:00 +12°C° 0 mm 2 mps 755 mmHg 38%
23:00 +11°C° 0 mm 1 mps 755 mmHg 43%

Day after tomorrow, 23 January, Saturday

Time Temperature Precipitation Wind Pressure Humidity
00:00 +10°C° 0 mm 1 mps 754 mmHg 42%
01:00 +10°C° 0 mm 1 mps 754 mmHg 40%
02:00 +9°C° 0 mm 1 mps 754 mmHg 38%
03:00 +9°C° 0 mm 1 mps 754 mmHg 40%
04:00 +9°C° 0 mm 1 mps 754 mmHg 41%
05:00 +8°C° 0 mm 1 mps 753 mmHg 43%
06:00 +10°C° 0 mm 1 mps 754 mmHg 38%
07:00 +12°C° 0 mm 1 mps 754 mmHg 34%
08:00 +13°C° 0 mm 1 mps 755 mmHg 29%
09:00 +16°C° 0 mm 2 mps 754 mmHg 26%
10:00 +18°C° 0 mm 2 mps 754 mmHg 22%
11:00 +20°C° 0 mm 2 mps 754 mmHg 19%
12:00 +22°C° 0 mm 3 mps 754 mmHg 16%
13:00 +24°C° 0 mm 3 mps 753 mmHg 14%
14:00 +26°C° 0 mm 3 mps 752 mmHg 12%
15:00 +23°C° 0 mm 4 mps 752 mmHg 13%
16:00 +22°C° 0 mm 4 mps 752 mmHg 13%
17:00 +21°C° 0 mm 4 mps 752 mmHg 14%
18:00 +19°C° 0 mm 4 mps 753 mmHg 15%
19:00 +17°C° 0 mm 4 mps 753 mmHg 17%
20:00 +14°C° 0 mm 4 mps 753 mmHg 19%
21:00 +13°C° 0 mm 3 mps 754 mmHg 22%
22:00 +12°C° 0 mm 3 mps 754 mmHg 25%
23:00 +12°C° 0 mm 2 mps 754 mmHg 28%

24 January, Sunday

Time Temperature Precipitation Wind Pressure Humidity
00:00 +10°C° 0 mm 2 mps 754 mmHg 31%
01:00 +9°C° 0 mm 2 mps 753 mmHg 33%
02:00 +9°C° 0 mm 1 mps 753 mmHg 35%
03:00 +9°C° 0 mm 1 mps 753 mmHg 37%
04:00 +8°C° 0 mm 1 mps 753 mmHg 39%
05:00 +8°C° 0 mm 1 mps 753 mmHg 41%
06:00 +10°C° 0 mm 1 mps 754 mmHg 37%
07:00 +10°C° 0 mm 2 mps 754 mmHg 33%
08:00 +13°C° 0 mm 2 mps 754 mmHg 29%
09:00 +15°C° 0 mm 2 mps 754 mmHg 25%
10:00 +17°C° 0 mm 2 mps 754 mmHg 20%
11:00 +20°C° 0 mm 3 mps 754 mmHg 16%
12:00 +21°C° 0 mm 3 mps 754 mmHg 14%
13:00 +24°C° 0 mm 3 mps 753 mmHg 12%
14:00 +25°C° 0 mm 3 mps 753 mmHg 10%
15:00 +24°C° 0 mm 3 mps 753 mmHg 11%
16:00 +22°C° 0 mm 4 mps 752 mmHg 12%
17:00 +21°C° 0 mm 4 mps 752 mmHg 13%
18:00 +19°C° 0 mm 4 mps 753 mmHg 16%
19:00 +17°C° 0 mm 3 mps 753 mmHg 19%
20:00 +14°C° 0 mm 3 mps 754 mmHg 21%
21:00 +13°C° 0 mm 3 mps 754 mmHg 26%
22:00 +12°C° 0 mm 3 mps 754 mmHg 31%
23:00 +12°C° 0 mm 2 mps 754 mmHg 36%

25 January, Monday

Time Temperature Precipitation Wind Pressure Humidity
00:00 +10°C° 0 mm 2 mps 754 mmHg 41%
01:00 +10°C° 0 mm 2 mps 754 mmHg 45%
02:00 +9°C° 0 mm 2 mps 754 mmHg 49%
03:00 +8°C° 0 mm 2 mps 754 mmHg 52%
04:00 +8°C° 0 mm 2 mps 754 mmHg 55%
05:00 +8°C° 0 mm 1 mps 753 mmHg 58%
06:00 +10°C° 0 mm 1 mps 754 mmHg 51%
07:00 +12°C° 0 mm 1 mps 754 mmHg 44%
08:00 +13°C° 0 mm 1 mps 755 mmHg 38%
09:00 +15°C° 0 mm 2 mps 755 mmHg 32%
10:00 +18°C° 0 mm 2 mps 755 mmHg 26%
11:00 +20°C° 0 mm 2 mps 755 mmHg 20%
12:00 +22°C° 0 mm 3 mps 754 mmHg 17%
13:00 +24°C° 0 mm 3 mps 754 mmHg 14%
14:00 +26°C° 0 mm 3 mps 753 mmHg 10%
15:00 +25°C° 0 mm 3 mps 753 mmHg 11%
16:00 +22°C° 0 mm 3 mps 753 mmHg 12%
17:00 +21°C° 0 mm 2 mps 753 mmHg 13%
18:00 +19°C° 0 mm 2 mps 753 mmHg 18%
19:00 +17°C° 0 mm 2 mps 753 mmHg 24%
20:00 +15°C° 0 mm 2 mps 754 mmHg 29%
21:00 +14°C° 0 mm 2 mps 754 mmHg 32%
22:00 +13°C° 0 mm 2 mps 754 mmHg 34%
23:00 +12°C° 0 mm 1 mps 754 mmHg 37%

26 January, Tuesday

Time Temperature Precipitation Wind Pressure Humidity
00:00 +11°C° 0 mm 1 mps 754 mmHg 39%
01:00 +11°C° 0 mm 1 mps 753 mmHg 42%
02:00 +10°C° 0 mm 1 mps 753 mmHg 44%
03:00 +10°C° 0 mm 1 mps 753 mmHg 48%
04:00 +9°C° 0 mm 1 mps 753 mmHg 51%
05:00 +9°C° 0 mm 1 mps 753 mmHg 54%
06:00 +11°C° 0 mm 1 mps 753 mmHg 47%
07:00 +13°C° 0 mm 1 mps 754 mmHg 40%
08:00 +14°C° 0 mm 1 mps 754 mmHg 33%
09:00 +18°C° 0 mm 1 mps 754 mmHg 27%
10:00 +20°C° 0 mm 1 mps 754 mmHg 22%
11:00 +23°C° 0 mm 2 mps 754 mmHg 16%
12:00 +24°C° 0 mm 1 mps 753 mmHg 14%
13:00 +26°C° 0 mm 1 mps 752 mmHg 12%
14:00 +27°C° 0 mm 1 mps 752 mmHg 9%
15:00 +26°C° 0 mm 2 mps 751 mmHg 10%
16:00 +25°C° 0 mm 2 mps 751 mmHg 11%
17:00 +23°C° 0 mm 2 mps 751 mmHg 12%
18:00 +21°C° 0 mm 3 mps 751 mmHg 15%
19:00 +19°C° 0 mm 3 mps 752 mmHg 18%
20:00 +17°C° 0 mm 3 mps 752 mmHg 21%
21:00 +16°C° 0 mm 3 mps 752 mmHg 24%
22:00 +14°C° 0 mm 3 mps 752 mmHg 28%
23:00 +13°C° 0 mm 3 mps 752 mmHg 31%
Show more